Regional Weather Roundup
Issued by NWS

Home | Current Version | Previous Version | Text Only | Print | Product List | Glossary On
Versions: 1 2 3 4 5 6 7 8 9 10 11 12 13 14 15 16 17 18 19 20 21 22 23 24 25 26 27 28 29 30 31 32 33 34 35 36 37 38 39 40 41 42 43 44 45 46 47 48 49 50
000
ASUS42 KTBW 030710
RWRFL
FLORIDA REGIONAL WEATHER ROUNDUP
NATIONAL WEATHER SERVICE TAMPA BAY RUSKIN FL
200 AM EST TUE MAR 03 2015

NOTE: "FAIR" INDICATES FEW OR NO CLOUDS BELOW 12,000 FEET WITH NO
SIGNIFICANT WEATHER AND/OR OBSTRUCTIONS TO VISIBILITY.


FLZ001>010-012>015-112-114-115-030800-
PANHANDLE FLORIDA

CITY           SKY/WX    TMP DP  RH WIND       PRES   REMARKS
PENSACOLA      FOG       63  63 100 CALM      30.19F VSB 1
PENSACOLA NAS  FOG       63  63 100 E3        30.19F VSB 3/4
MILTON NAS     LGT RAIN  63  62  97 CALM      30.19F VSB 1/4
CRESTVIEW      CLOUDY    61  60  97 CALM      30.22S FOG
DUKE FIELD     FOG       60  60  97 CALM      30.18F VSB 1/2
VALPARAISO     FOG       61  61  99 E2        30.18F VSB 1/4
MARY ESTHER    FOG       61  59  92 CALM      30.18F VSB 0
TRI COUNTY     FAIR      56  56 100 CALM      30.21F FOG
PANAMA CITY    FAIR      55  55 100 CALM      30.19F FOG
TYNDALL AFB    FOG       55  55 100 CALM      30.20F VSB 1/2
APALACHICOLA   FOG       60  57  89 CALM      30.20F VSB 1/2

STATION/POSITION SKY/WX   TEMP    WIND        PRES    WAVE   SWELL
                          AIR SEA DIR/SP/G            HT/PER HT/PER
                          (F)     (DEG/KT/KT) (MB)    (FT/S) (FT/S)
30.1N   87.6W              65 64  120/  8/  8 1021.6F   2/ 7   2/ 7
29.2N   88.2W              70 71  140/ 10/ 10 1022.2F   2/ 7   2/ 7
28.7N   86.0W              65 67  100/  2/  4 1023.1    1/ 7   2/ 7
PANAMA CITY BEAC           57      10/  4/  5 1022.5F
CAPE SAN BLAS    NOT AVBL
TOWER C                    59     320/  9/  9 1022.7F
28.5N   84.5W              63 67   30/  6/  8 1022.9F   1/ 7

$$
FLZ011-016>038-118-127-128-134-139-239-030800-
NORTH FLORIDA

CITY           SKY/WX    TMP DP  RH WIND       PRES   REMARKS
MARIANNA       PTCLDY    55  55 100 S3        30.20F FOG
TALLAHASSEE    PTCLDY    61  57  87 CALM      30.21F
PERRY          FOG       57  57 100 CALM      30.22F VSB 3/4
CROSS CITY       N/A     59  58  96 CALM      30.20F
LAKE CITY      FAIR      63  63 100 CALM      30.22S
GAINESVILLE    FOG       60  60 100 NE6       30.21F VSB 1/2
MAYPORT NAS    LGT RAIN  60  58  92 CALM      30.22F
JACKSONVILLE   CLOUDY    61  60  97 CALM      30.22F
JAX NAS        MOCLDY    64  58  80 CALM      30.23F
JAX CRAIG      CLOUDY    61  58  90 CALM      30.22F
JAX CECIL      MOCLDY    59  59 100 CALM      30.22F FOG
FERNANDINA BEA CLOUDY    64  61  88 SW3       30.21S
ST AUGUSTINE   CLOUDY    61  60  97 CALM      30.23F FOG

STATION/POSITION SKY/WX   TEMP    WIND        PRES    WAVE   SWELL
                          AIR SEA DIR/SP/G            HT/PER HT/PER
                          (F)     (DEG/KT/KT) (MB)    (FT/S) (FT/S)
SHELL POINT      NOT AVBL
KEATON BEACH               59     340/  2/  3 1023.2F
CEDAR KEY                  64     310/  2/  2 1023.5F
FERNANDINA                 59     180/  2/  3 1022.6F
30.7N   81.3W                 54                N/A     2/ 8
MAYPORT                    59     200/  2/  2 1023.4F
31.4N   80.9W              54 52  220/  6/  8 1023.1F   2/ 9   2/ 9
ST AUGUSTINE               61      10/  1/  2 1023.9F

$$
FLZ040-043>046-052-053-057-058-063-144-030800-
INTERIOR CENTRAL FLORIDA

CITY           SKY/WX    TMP DP  RH WIND       PRES   REMARKS
OCALA          PTCLDY    64  61  88 CALM      30.21S
THE VILLAGES     N/A     64  64 100 CALM      30.11S FOG
LEESBURG       PTCLDY    66  64  93 CALM      30.21S
SANFORD        PTCLDY    66  64  93 S3        30.20F
ORLANDO EXEC   PTCLDY    65  64  97 CALM      30.19F
ORLANDO INTL   PTCLDY    66  66 100 CALM      30.20F
WINTER HAVEN   PTCLDY    65  64  97 CALM      30.21F FOG
LAKELAND       PTCLDY    63  63 100 CALM      30.21F
BARTOW         FAIR      63  63 100 CALM      30.21F
OKEECHOBEE     DRZL/FOG  63  63 100 CALM      30.20F VSB 1/4

$$
FLZ041-047-054-059-064-141-147-030800-
EAST CENTRAL FLORIDA

CITY           SKY/WX    TMP DP  RH WIND       PRES   REMARKS
DAYTONA BEACH  FOG       63  63 100 N6        30.21F VSB 1/2
DELAND         PTSUNNY  N/A N/A N/A NW3       30.21F
JFK SPACE CTR  PTCLDY    61  59  94 CALM      30.19F FOG
CAPE CANAVERAL FOG       61  59  94 CALM      30.18F VSB 1
PATRICK AFB    CLEAR     66  66  99 E5        30.18F
MELBOURNE      CLEAR     64  63  96 CALM      30.19F
VERO BEACH     FOG       62  59  90 CALM      30.19F VSB 1/4
FT PIERCE      FOG       61  60  97 CALM      30.18F VSB 3/4
STUART         CLEAR     68  64  88 E3        30.20F

STATION/POSITION SKY/WX   TEMP    WIND        PRES    WAVE   SWELL
                          AIR SEA DIR/SP/G            HT/PER HT/PER
                          (F)     (DEG/KT/KT) (MB)    (FT/S) (FT/S)
28.5N   80.2W              73 72  100/  8/  8 1022.8F
28.9N   78.5W              73 75   50/  8/ 10 1023.2F   4/ 9   3/ 9
TRIDENT PIER               67     110/  3/  4 1023.1F
28.4N   80.5W                 64                N/A     2/11   2/11
27.6N   80.2W                 72                N/A     3/10   2/11

$$
FLZ050-056-061-142-242-148-248-149-249-151-251-155-255-
160-260-030800-
WEST CENTRAL FLORIDA

CITY           SKY/WX    TMP DP  RH WIND       PRES   REMARKS
CRYSTAL RIVER  FOG       61  59  94 CALM      30.21S VSB 3/4
INVERNESS      FOG       63  61  94 CALM      30.21F VSB 1
BROOKSVILLE    FOG       64  63  96 CALM      30.21F VSB 1/4
ZEPHYRHILLS      N/A     61  61 100 CALM      30.21F FOG
CLEARWATER     FOG       67  66  97 NE5       30.20F VSB 3/4
TAMPA INTL     PTCLDY    67  65  93 VRB3      30.21F FOG
TAMPA EXEC     FOG       64  63  94 CALM      30.21F VSB 3/4
PLANT CITY     PTCLDY   N/A N/A N/A CALM      30.22F
MACDILL AFB    CLEAR     64  64  99 NE3       30.20F
PETER O KNIGHT PTCLDY    70  68  94 CALM      30.21S
ST PETERSBURG  CLEAR     68  65  90 NE5       30.18F
SARASOTA       PTCLDY    66  65  96 NE6       30.18F
VENICE         FAIR      66  66 100 NE6       30.19F

STATION/POSITION SKY/WX   TEMP    WIND        PRES    WAVE   SWELL
                          AIR SEA DIR/SP/G            HT/PER HT/PER
                          (F)     (DEG/KT/KT) (MB)    (FT/S) (FT/S)
CEDAR KEY                  64     310/  2/  2 1023.5F
28.5N   84.5W              63 67   30/  6/  8 1022.9F   1/ 7
27.3N   84.3W                 71                N/A     1/ 7
CLEARWATER BEACH           67      40/  4/  5 1022.9F
MIDDLE TAMPA BAY           66      50/  8/  9 1023.0F
VENICE                     68 64   60/  5/  6 1021.6F

$$
FLZ066-069-070-075>078-162-262-165-265-030800-
SOUTHWEST FLORIDA AND KEYS

CITY           SKY/WX    TMP DP  RH WIND       PRES   REMARKS
PUNTA GORDA    CLEAR     63  63 100 NE3       30.20F
FT MYERS       CLEAR     66  65  96 E3        30.17F
SOUTHWEST INTL CLEAR     65  63  93 NE3       30.18F
NAPLES         CLEAR     67  65  93 E3        30.17F
MARCO ISLAND   MOSUNNY   64  63  94 E5        30.17F
IMMOKALEE      SUNNY    N/A N/A N/A CALM      30.19F
MARATHON       PTCLDY    74  68  81 E10       30.14F
KEY WEST NAS   MOCLDY    74  68  81 E10       30.15F
KEY WEST INTL  PTCLDY    74  69  85 E9        30.15F

STATION/POSITION SKY/WX   TEMP    WIND        PRES    WAVE   SWELL
                          AIR SEA DIR/SP/G            HT/PER HT/PER
                          (F)     (DEG/KT/KT) (MB)    (FT/S) (FT/S)
VENICE                     68 64   60/  5/  6 1021.6F
NAPLES                     68     110/  1/  2 1021.7F
26.0N   85.6W              74 78   70/ 10/ 10 1021.1F   2/ 7   2/ 7
DRY TORTUGAS               72      80/ 17/ 19 1021.1F
NW FL BAY                  73      70/ 11/ 12 1022.3F
SAND KEY                   74      70/ 16/ 19 1020.6F
SOMBRERO KEY               74      80/ 19/ 19 1020.9F
LONG KEY                   75 77   80/ 16/ 18 1022.4F
MOLASSES REEF              75 75  100/ 13/ 15 1020.8F

$$
FLZ067-068-071>074-168-172>174-030800-
SOUTHEAST FLORIDA

CITY           SKY/WX    TMP DP  RH WIND       PRES   REMARKS
W PALM BEACH   PTCLDY    74  68  81 E8        30.17F
FT LAUDER-EXEC PTCLDY    72  67  84 E9        30.17F
FT LAUDERDALE  PTCLDY    73  68  84 E9        30.17F
POMPANO BEACH  CLEAR     73  66  78 E10       30.18F
PEMBROKE PINES CLEAR     70  64  81 E3        30.18F
OPA LOCKA      CLEAR     71  64  78 E5        30.18F
MIAMI          PTCLDY    71  64  78 E7        30.18F
WEST KENDALL   CLEAR     67  64  90 E5        30.17F
HOMESTEAD      PTCLDY    73  65  78 E7        30.16F

STATION/POSITION SKY/WX   TEMP    WIND        PRES    WAVE   SWELL
                          AIR SEA DIR/SP/G            HT/PER HT/PER
                          (F)     (DEG/KT/KT) (MB)    (FT/S) (FT/S)
PORT EVERGLADES            75      80/  8/ 12 1021.7
VIRGINIA KEY               75      90/  9/ 13 1021.3F
LAKE WORTH                 74      80/  9/ 10 1021.6F
SETTLEMENT POINT           73      90/  9/ 10 1023.0F

$$




USA.gov is the U.S. government's official web portal to all federal, state and local government web resources and services.